owner,sensor,date,latitude,longitude,vertical_datum,direction_of_sea_water_velocity,sea_water_speed,upward_sea_water_velocity,qcFlag 
TABS,ioos:station:wmo:42044:1,2017-09-01T00:00:00Z,26.1914,-97.0507,2.0,22.37907622,25.60868798,-99999.0,'11111222,11111222,99999999' 
TABS,ioos:station:wmo:42044:1,2017-09-01T00:30:00Z,26.1914,-97.0507,2.0,22.59624839,24.10000207,-99999.0,'11111222,11111222,99999999' 
TABS,ioos:station:wmo:42044:1,2017-09-01T01:00:00Z,26.1914,-97.0507,2.0,17.76528334,20.28739757,-99999.0,'11111222,11111222,99999999' 
TABS,ioos:station:wmo:42044:1,2017-09-01T01:30:00Z,26.1914,-97.0507,2.0,24.64319297,31.20175796,-99999.0,'11111222,11111222,99999999' 
TABS,ioos:station:wmo:42044:1,2017-09-01T02:00:00Z,26.1914,-97.0507,2.0,21.78465162,31.44564994,-99999.0,'11111222,11111222,99999999' 
TABS,ioos:station:wmo:42044:1,2017-09-01T02:30:00Z,26.1914,-97.0507,2.0,20.86178149,32.04046972,-99999.0,'11111222,11111222,99999999' 
TABS,ioos:station:wmo:42044:1,2017-09-01T03:00:00Z,26.1914,-97.0507,2.0,17.37617689,35.76198121,-99999.0,'11111222,11111222,99999999' 
TABS,ioos:station:wmo:42044:1,2017-09-01T03:30:00Z,26.1914,-97.0507,2.0,15.645655,34.11396342,-99999.0,'11111222,11111222,99999999' 
TABS,ioos:station:wmo:42044:1,2017-09-01T04:00:00Z,26.1914,-97.0507,2.0,16.14367341,34.5628717,-99999.0,'11111222,11111222,99999999' 
TABS,ioos:station:wmo:42044:1,2017-09-01T04:30:00Z,26.1914,-97.0507,2.0,15.31526577,31.84073178,-99999.0,'11111222,11111222,99999999' 
TABS,ioos:station:wmo:42044:1,2017-09-01T05:00:00Z,26.1914,-97.0507,2.0,17.50699103,32.21202415,-99999.0,'11111222,11111222,99999999' 
TABS,ioos:station:wmo:42044:1,2017-09-01T05:30:00Z,26.1914,-97.0507,2.0,17.34123048,31.63802933,-99999.0,'11111222,11111222,99999999' 
TABS,ioos:station:wmo:42044:1,2017-09-01T06:00:00Z,26.1914,-97.0507,2.0,21.30680021,31.18126681,-99999.0,'11111222,11111222,99999999' 
TABS,ioos:station:wmo:42044:1,2017-09-01T06:30:00Z,26.1914,-97.0507,2.0,21.85704498,28.76793528,-99999.0,'11111222,11111222,99999999' 
TABS,ioos:station:wmo:42044:1,2017-09-01T07:00:00Z,26.1914,-97.0507,2.0,26.04935155,29.3070947,-99999.0,'11111222,11111222,99999999' 
TABS,ioos:station:wmo:42044:1,2017-09-01T07:30:00Z,26.1914,-97.0507,2.0,26.56519952,25.44645358,-99999.0,'11111222,11111222,99999999' 
TABS,ioos:station:wmo:42044:1,2017-09-01T08:00:00Z,26.1914,-97.0507,2.0,25.73755113,25.07788269,-99999.0,'11111222,11111222,99999999' 
TABS,ioos:station:wmo:42044:1,2017-09-01T08:30:00Z,26.1914,-97.0507,2.0,33.66466639,24.89494728,-99999.0,'11111222,11111222,99999999' 
TABS,ioos:station:wmo:42044:1,2017-09-01T09:00:00Z,26.1914,-97.0507,2.0,32.14494397,22.21550134,-99999.0,'11111222,11111222,99999999' 
TABS,ioos:station:wmo:42044:1,2017-09-01T09:30:00Z,26.1914,-97.0507,2.0,40.59837173,20.45328824,-99999.0,'11111222,11111222,99999999' 
TABS,ioos:station:wmo:42044:1,2017-09-01T10:00:00Z,26.1914,-97.0507,2.0,40.89175132,17.76574794,-99999.0,'11111222,11111222,99999999' 
TABS,ioos:station:wmo:42044:1,2017-09-01T10:30:00Z,26.1914,-97.0507,2.0,44.22419591,16.18715849,-99999.0,'11111222,11111222,99999999' 
TABS,ioos:station:wmo:42044:1,2017-09-01T11:00:00Z,26.1914,-97.0507,2.0,40.59364863,16.01380654,-99999.0,'11111222,11111222,99999999' 
TABS,ioos:station:wmo:42044:1,2017-09-01T11:30:00Z,26.1914,-97.0507,2.0,37.92218494,10.6737997,-99999.0,'11111222,11111222,99999999' 
TABS,ioos:station:wmo:42044:1,2017-09-01T12:00:00Z,26.1914,-97.0507,2.0,46.68662171,6.486979266,-99999.0,'11133222,11111222,99999999' 
TABS,ioos:station:wmo:42044:1,2017-09-01T12:30:00Z,26.1914,-97.0507,2.0,55.01285063,9.801290731,-99999.0,'11133222,11111222,99999999' 
TABS,ioos:station:wmo:42044:1,2017-09-01T13:00:00Z,26.1914,-97.0507,2.0,52.87850955,10.47210103,-99999.0,'11111222,11111222,99999999' 
TABS,ioos:station:wmo:42044:1,2017-09-01T13:30:00Z,26.1914,-97.0507,2.0,51.24425602,5.591028528,-99999.0,'11133222,11111222,99999999' 
TABS,ioos:station:wmo:42044:1,2017-09-01T14:00:00Z,26.1914,-97.0507,2.0,44.23365402,4.228876919,-99999.0,'11133222,11111222,99999999' 
TABS,ioos:station:wmo:42044:1,2017-09-01T14:30:00Z,26.1914,-97.0507,2.0,78.11136976,2.135813662,-99999.0,'11133222,11111222,99999999' 
TABS,ioos:station:wmo:42044:1,2017-09-01T15:00:00Z,26.1914,-97.0507,2.0,35.34829433,3.163115553,-99999.0,'11133222,11111222,99999999' 
TABS,ioos:station:wmo:42044:1,2017-09-01T15:30:00Z,26.1914,-97.0507,2.0,68.3008182,4.165153058,-99999.0,'11133222,11111222,99999999' 
TABS,ioos:station:wmo:42044:1,2017-09-01T16:00:00Z,26.1914,-97.0507,2.0,62.05917916,2.048828934,-99999.0,'11133222,11111222,99999999' 
TABS,ioos:station:wmo:42044:1,2017-09-01T16:30:00Z,26.1914,-97.0507,2.0,133.4609789,2.369662423,-99999.0,'11133222,11111222,99999999' 
TABS,ioos:station:wmo:42044:1,2017-09-01T17:00:00Z,26.1914,-97.0507,2.0,191.9950782,4.426657882,-99999.0,'11133222,11111222,99999999' 
TABS,ioos:station:wmo:42044:1,2017-09-01T17:30:00Z,26.1914,-97.0507,2.0,212.2644698,4.683118619,-99999.0,'11133222,11111222,99999999' 
TABS,ioos:station:wmo:42044:1,2017-09-01T18:00:00Z,26.1914,-97.0507,2.0,235.6368739,2.834713389,-99999.0,'11133222,11111222,99999999' 
TABS,ioos:station:wmo:42044:1,2017-09-01T18:30:00Z,26.1914,-97.0507,2.0,256.949581,3.100064515,-99999.0,'11133222,11111222,99999999' 
TABS,ioos:station:wmo:42044:1,2017-09-01T19:00:00Z,26.1914,-97.0507,2.0,292.0085154,3.602513012,-99999.0,'11133222,11111222,99999999' 
TABS,ioos:station:wmo:42044:1,2017-09-01T19:30:00Z,26.1914,-97.0507,2.0,285.5516028,6.788519721,-99999.0,'11133222,11111222,99999999' 
TABS,ioos:station:wmo:42044:1,2017-09-01T20:00:00Z,26.1914,-97.0507,2.0,285.1469896,9.261749295,-99999.0,'11133222,11111222,99999999' 
TABS,ioos:station:wmo:42044:1,2017-09-01T20:30:00Z,26.1914,-97.0507,2.0,289.5506762,8.935127307,-99999.0,'11133222,11111222,99999999' 
TABS,ioos:station:wmo:42044:1,2017-09-01T21:00:00Z,26.1914,-97.0507,2.0,299.2588171,10.37339867,-99999.0,'11111222,11111222,99999999' 
TABS,ioos:station:wmo:42044:1,2017-09-01T21:30:00Z,26.1914,-97.0507,2.0,297.5508725,9.620987475,-99999.0,'11133222,11111222,99999999' 
TABS,ioos:station:wmo:42044:1,2017-09-01T22:00:00Z,26.1914,-97.0507,2.0,319.2475095,11.07542324,-99999.0,'11111222,11111222,99999999' 
TABS,ioos:station:wmo:42044:1,2017-09-01T22:30:00Z,26.1914,-97.0507,2.0,316.8007048,13.27894951,-99999.0,'11111222,11111222,99999999' 
TABS,ioos:station:wmo:42044:1,2017-09-01T23:00:00Z,26.1914,-97.0507,2.0,326.7881571,10.97235162,-99999.0,'11111222,11111222,99999999' 
TABS,ioos:station:wmo:42044:1,2017-09-01T23:30:00Z,26.1914,-97.0507,2.0,323.3524741,15.48011628,-99999.0,'11111222,11111222,99999999' 
TABS,ioos:station:wmo:42044:1,2017-09-02T00:00:00Z,26.1914,-97.0507,2.0,335.0943555,16.21829214,-99999.0,'11111222,11111222,99999999' 
TABS,ioos:station:wmo:42044:1,2017-09-02T00:30:00Z,26.1914,-97.0507,2.0,338.3788691,10.63853843,-99999.0,'11111222,11111222,99999999' 
TABS,ioos:station:wmo:42044:1,2017-09-02T01:00:00Z,26.1914,-97.0507,2.0,333.1740329,10.79137619,-99999.0,'11111222,11111222,99999999' 
TABS,ioos:station:wmo:42044:1,2017-09-02T01:30:00Z,26.1914,-97.0507,2.0,346.9009441,19.28173488,-99999.0,'11111222,11111222,99999999' 
TABS,ioos:station:wmo:42044:1,2017-09-02T02:00:00Z,26.1914,-97.0507,2.0,346.4907809,21.1039167,-99999.0,'11111222,11111222,99999999' 
TABS,ioos:station:wmo:42044:1,2017-09-02T02:30:00Z,26.1914,-97.0507,2.0,355.9490383,18.96739307,-99999.0,'11111222,11111222,99999999' 
TABS,ioos:station:wmo:42044:1,2017-09-02T03:00:00Z,26.1914,-97.0507,2.0,354.589492,21.10403279,-99999.0,'11111222,11111222,99999999' 
TABS,ioos:station:wmo:42044:1,2017-09-02T03:30:00Z,26.1914,-97.0507,2.0,357.5489354,20.8090413,-99999.0,'11111222,11111222,99999999' 
TABS,ioos:station:wmo:42044:1,2017-09-02T04:00:00Z,26.1914,-97.0507,2.0,0.371698217,20.05042144,-99999.0,'11111222,11111222,99999999' 
TABS,ioos:station:wmo:42044:1,2017-09-02T04:30:00Z,26.1914,-97.0507,2.0,0.218478529,21.00015238,-99999.0,'11111222,11111222,99999999' 
TABS,ioos:station:wmo:42044:1,2017-09-02T05:00:00Z,26.1914,-97.0507,2.0,2.734903898,19.49219844,-99999.0,'11111222,11111222,99999999' 
TABS,ioos:station:wmo:42044:1,2017-09-02T05:30:00Z,26.1914,-97.0507,2.0,7.412696055,18.29287293,-99999.0,'11111222,11111222,99999999' 
TABS,ioos:station:wmo:42044:1,2017-09-02T06:00:00Z,26.1914,-97.0507,2.0,8.585048806,17.28364834,-99999.0,'11111222,11111222,99999999' 
TABS,ioos:station:wmo:42044:1,2017-09-02T06:30:00Z,26.1914,-97.0507,2.0,8.040714658,20.80452114,-99999.0,'11111222,11111222,99999999' 
TABS,ioos:station:wmo:42044:1,2017-09-02T07:00:00Z,26.1914,-97.0507,2.0,14.6574423,16.55887979,-99999.0,'11111222,11111222,99999999' 
TABS,ioos:station:wmo:42044:1,2017-09-02T07:30:00Z,26.1914,-97.0507,2.0,6.054894064,17.06519557,-99999.0,'11111222,11111222,99999999' 
TABS,ioos:station:wmo:42044:1,2017-09-02T08:00:00Z,26.1914,-97.0507,2.0,10.04178542,13.82172927,-99999.0,'11111222,11111222,99999999' 
TABS,ioos:station:wmo:42044:1,2017-09-02T08:30:00Z,26.1914,-97.0507,2.0,17.71545143,14.85438992,-99999.0,'11111222,11111222,99999999' 
TABS,ioos:station:wmo:42044:1,2017-09-02T09:00:00Z,26.1914,-97.0507,2.0,15.42233571,15.04160896,-99999.0,'11111222,11111222,99999999' 
TABS,ioos:station:wmo:42044:1,2017-09-02T09:30:00Z,26.1914,-97.0507,2.0,18.63739475,14.33153167,-99999.0,'11111222,11111222,99999999' 
TABS,ioos:station:wmo:42044:1,2017-09-02T10:00:00Z,26.1914,-97.0507,2.0,21.49040516,12.99329442,-99999.0,'11111222,11111222,99999999' 
TABS,ioos:station:wmo:42044:1,2017-09-02T10:30:00Z,26.1914,-97.0507,2.0,27.22974224,10.79646238,-99999.0,'11111222,11111222,99999999' 
TABS,ioos:station:wmo:42044:1,2017-09-02T11:00:00Z,26.1914,-97.0507,2.0,18.13236789,9.57551043,-99999.0,'11133222,11111222,99999999' 
TABS,ioos:station:wmo:42044:1,2017-09-02T11:30:00Z,26.1914,-97.0507,2.0,22.12158153,8.311852982,-99999.0,'11133222,11111222,99999999' 
TABS,ioos:station:wmo:42044:1,2017-09-02T12:00:00Z,26.1914,-97.0507,2.0,25.1541401,10.3516617,-99999.0,'11111222,11111222,99999999' 
TABS,ioos:station:wmo:42044:1,2017-09-02T12:30:00Z,26.1914,-97.0507,2.0,29.34179655,9.69355456,-99999.0,'11133222,11111222,99999999' 
TABS,ioos:station:wmo:42044:1,2017-09-02T13:00:00Z,26.1914,-97.0507,2.0,24.25351069,10.20029902,-99999.0,'11111222,11111222,99999999' 
TABS,ioos:station:wmo:42044:1,2017-09-02T13:30:00Z,26.1914,-97.0507,2.0,26.92974801,8.434619138,-99999.0,'11133222,11111222,99999999' 
TABS,ioos:station:wmo:42044:1,2017-09-02T14:00:00Z,26.1914,-97.0507,2.0,35.01921977,6.935618213,-99999.0,'11133222,11111222,99999999' 
TABS,ioos:station:wmo:42044:1,2017-09-02T14:30:00Z,26.1914,-97.0507,2.0,23.78851824,7.016074401,-99999.0,'11133222,11111222,99999999' 
TABS,ioos:station:wmo:42044:1,2017-09-02T15:00:00Z,26.1914,-97.0507,2.0,29.50850901,6.009534092,-99999.0,'11133222,11111222,99999999' 
TABS,ioos:station:wmo:42044:1,2017-09-02T15:30:00Z,26.1914,-97.0507,2.0,27.32719144,5.380455371,-99999.0,'11133222,11111222,99999999' 
TABS,ioos:station:wmo:42044:1,2017-09-02T16:00:00Z,26.1914,-97.0507,2.0,29.84737636,6.2488799,-99999.0,'11133222,11111222,99999999' 
TABS,ioos:station:wmo:42044:1,2017-09-02T16:30:00Z,26.1914,-97.0507,2.0,50.81769954,5.650601738,-99999.0,'11133222,11111222,99999999' 
TABS,ioos:station:wmo:42044:1,2017-09-02T17:00:00Z,26.1914,-97.0507,2.0,34.50865275,3.689132689,-99999.0,'11133222,11111222,99999999' 
TABS,ioos:station:wmo:42044:1,2017-09-02T17:30:00Z,26.1914,-97.0507,2.0,45.98543687,2.878350222,-99999.0,'11133222,11111222,99999999' 
TABS,ioos:station:wmo:42044:1,2017-09-02T18:00:00Z,26.1914,-97.0507,2.0,31.59712197,3.569103529,-99999.0,'11133222,11111222,99999999' 
TABS,ioos:station:wmo:42044:1,2017-09-02T18:30:00Z,26.1914,-97.0507,2.0,45.57304259,2.828568543,-99999.0,'11133222,11111222,99999999' 
TABS,ioos:station:wmo:42044:1,2017-09-02T19:00:00Z,26.1914,-97.0507,2.0,61.43165908,4.349574692,-99999.0,'11133222,11111222,99999999' 
TABS,ioos:station:wmo:42044:1,2017-09-02T19:30:00Z,26.1914,-97.0507,2.0,69.9048158,1.309732797,-99999.0,'11133222,11111222,99999999' 
TABS,ioos:station:wmo:42044:1,2017-09-02T20:00:00Z,26.1914,-97.0507,2.0,100.9973062,2.516207464,-99999.0,'11133222,11111222,99999999' 
TABS,ioos:station:wmo:42044:1,2017-09-02T20:30:00Z,26.1914,-97.0507,2.0,341.837491,2.662667835,-99999.0,'11133222,11111222,99999999' 
TABS,ioos:station:wmo:42044:1,2017-09-02T21:00:00Z,26.1914,-97.0507,2.0,301.7875997,4.176421914,-99999.0,'11133222,11111222,99999999' 
TABS,ioos:station:wmo:42044:1,2017-09-02T21:30:00Z,26.1914,-97.0507,2.0,290.9300322,3.05132758,-99999.0,'11133222,11111222,99999999' 
TABS,ioos:station:wmo:42044:1,2017-09-02T22:00:00Z,26.1914,-97.0507,2.0,284.3649698,3.385852921,-99999.0,'11133222,11111222,99999999' 
TABS,ioos:station:wmo:42044:1,2017-09-02T22:30:00Z,26.1914,-97.0507,2.0,287.1953548,3.653286192,-99999.0,'11133222,11111222,99999999' 
TABS,ioos:station:wmo:42044:1,2017-09-02T23:00:00Z,26.1914,-97.0507,2.0,282.4999594,4.250752874,-99999.0,'11133222,11111222,99999999' 
TABS,ioos:station:wmo:42044:1,2017-09-02T23:30:00Z,26.1914,-97.0507,2.0,269.6696654,5.210086372,-99999.0,'11133222,11111222,99999999' 
TABS,ioos:station:wmo:42044:1,2017-09-03T00:00:00Z,26.1914,-97.0507,2.0,273.4915842,7.554018798,-99999.0,'11133222,11111222,99999999' 
TABS,ioos:station:wmo:42044:1,2017-09-03T00:30:00Z,26.1914,-97.0507,2.0,277.0349955,6.287328526,-99999.0,'11133222,11111222,99999999' 
TABS,ioos:station:wmo:42044:1,2017-09-03T01:00:00Z,26.1914,-97.0507,2.0,286.1871153,7.174405899,-99999.0,'11133222,11111222,99999999' 
TABS,ioos:station:wmo:42044:1,2017-09-03T01:30:00Z,26.1914,-97.0507,2.0,307.4544357,8.238428248,-99999.0,'11133222,11111222,99999999' 
TABS,ioos:station:wmo:42044:1,2017-09-03T02:00:00Z,26.1914,-97.0507,2.0,301.2091932,12.42861617,-99999.0,'11111222,11111222,99999999' 
TABS,ioos:station:wmo:42044:1,2017-09-03T02:30:00Z,26.1914,-97.0507,2.0,299.2773871,8.506585684,-99999.0,'11133222,11111222,99999999' 
TABS,ioos:station:wmo:42044:1,2017-09-03T03:00:00Z,26.1914,-97.0507,2.0,306.5871184,9.714118591,-99999.0,'11133222,11111222,99999999' 
TABS,ioos:station:wmo:42044:1,2017-09-03T03:30:00Z,26.1914,-97.0507,2.0,316.2318337,9.541074363,-99999.0,'11133222,11111222,99999999' 
TABS,ioos:station:wmo:42044:1,2017-09-03T04:00:00Z,26.1914,-97.0507,2.0,316.2704488,12.44106507,-99999.0,'11111222,11111222,99999999' 
TABS,ioos:station:wmo:42044:1,2017-09-03T04:30:00Z,26.1914,-97.0507,2.0,325.7954227,10.49535135,-99999.0,'11111222,11111222,99999999' 
TABS,ioos:station:wmo:42044:1,2017-09-03T05:00:00Z,26.1914,-97.0507,2.0,327.7842404,13.26172312,-99999.0,'11111222,11111222,99999999' 
TABS,ioos:station:wmo:42044:1,2017-09-03T05:30:00Z,26.1914,-97.0507,2.0,327.3151028,13.7586809,-99999.0,'11111222,11111222,99999999' 
TABS,ioos:station:wmo:42044:1,2017-09-03T06:00:00Z,26.1914,-97.0507,2.0,335.4101508,12.97690256,-99999.0,'11111222,11111222,99999999' 
TABS,ioos:station:wmo:42044:1,2017-09-03T06:30:00Z,26.1914,-97.0507,2.0,332.6930293,10.70271928,-99999.0,'11111222,11111222,99999999' 
TABS,ioos:station:wmo:42044:1,2017-09-03T07:00:00Z,26.1914,-97.0507,2.0,338.4005668,12.65892965,-99999.0,'11111222,11111222,99999999' 
TABS,ioos:station:wmo:42044:1,2017-09-03T07:30:00Z,26.1914,-97.0507,2.0,339.6164334,12.46025682,-99999.0,'11111222,11111222,99999999' 
TABS,ioos:station:wmo:42044:1,2017-09-03T08:00:00Z,26.1914,-97.0507,2.0,337.8758945,8.894948004,-99999.0,'11133222,11111222,99999999' 
TABS,ioos:station:wmo:42044:1,2017-09-03T08:30:00Z,26.1914,-97.0507,2.0,343.9118365,13.20725937,-99999.0,'11111222,11111222,99999999' 
TABS,ioos:station:wmo:42044:1,2017-09-03T09:00:00Z,26.1914,-97.0507,2.0,347.8743484,11.5681027,-99999.0,'11111222,11111222,99999999' 
TABS,ioos:station:wmo:42044:1,2017-09-03T09:30:00Z,26.1914,-97.0507,2.0,348.2231153,10.58277846,-99999.0,'11111222,11111222,99999999' 
TABS,ioos:station:wmo:42044:1,2017-09-03T10:00:00Z,26.1914,-97.0507,2.0,351.759831,12.48894311,-99999.0,'11111222,11111222,99999999' 
TABS,ioos:station:wmo:42044:1,2017-09-03T10:30:00Z,26.1914,-97.0507,2.0,349.8923973,11.9657177,-99999.0,'11111222,11111222,99999999' 
TABS,ioos:station:wmo:42044:1,2017-09-03T11:00:00Z,26.1914,-97.0507,2.0,358.6051585,13.14389592,-99999.0,'11111222,11111222,99999999' 
TABS,ioos:station:wmo:42044:1,2017-09-03T11:30:00Z,26.1914,-97.0507,2.0,1.135493859,13.12257597,-99999.0,'11111222,11111222,99999999' 
TABS,ioos:station:wmo:42044:1,2017-09-03T12:00:00Z,26.1914,-97.0507,2.0,358.2071041,11.18547719,-99999.0,'11111222,11111222,99999999' 
TABS,ioos:station:wmo:42044:1,2017-09-03T12:30:00Z,26.1914,-97.0507,2.0,9.426633496,10.50180937,-99999.0,'11111222,11111222,99999999' 
TABS,ioos:station:wmo:42044:1,2017-09-03T13:00:00Z,26.1914,-97.0507,2.0,13.49982368,11.39482339,-99999.0,'11111222,11111222,99999999' 
TABS,ioos:station:wmo:42044:1,2017-09-03T13:30:00Z,26.1914,-97.0507,2.0,22.93589359,11.16247732,-99999.0,'11111222,11111222,99999999' 
TABS,ioos:station:wmo:42044:1,2017-09-03T14:00:00Z,26.1914,-97.0507,2.0,20.67291051,12.06696731,-99999.0,'11111222,11111222,99999999' 
TABS,ioos:station:wmo:42044:1,2017-09-03T14:30:00Z,26.1914,-97.0507,2.0,19.97799441,9.278324202,-99999.0,'11133222,11111222,99999999' 
TABS,ioos:station:wmo:42044:1,2017-09-03T15:00:00Z,26.1914,-97.0507,2.0,41.90978694,8.787974738,-99999.0,'11133222,11111222,99999999' 
TABS,ioos:station:wmo:42044:1,2017-09-03T15:30:00Z,26.1914,-97.0507,2.0,22.67283766,10.01385041,-99999.0,'11111222,11111222,99999999' 
TABS,ioos:station:wmo:42044:1,2017-09-03T16:00:00Z,26.1914,-97.0507,2.0,33.43401312,10.54495614,-99999.0,'11111222,11111222,99999999' 
TABS,ioos:station:wmo:42044:1,2017-09-03T16:30:00Z,26.1914,-97.0507,2.0,34.93024665,9.099214252,-99999.0,'11133222,11111222,99999999' 
TABS,ioos:station:wmo:42044:1,2017-09-03T17:00:00Z,26.1914,-97.0507,2.0,31.04407316,6.127650447,-99999.0,'11133222,11111222,99999999' 
TABS,ioos:station:wmo:42044:1,2017-09-03T17:30:00Z,26.1914,-97.0507,2.0,42.35970106,5.832752352,-99999.0,'11133222,11111222,99999999' 
TABS,ioos:station:wmo:42044:1,2017-09-03T18:00:00Z,26.1914,-97.0507,2.0,44.62771538,7.615700887,-99999.0,'11133222,11111222,99999999' 
TABS,ioos:station:wmo:42044:1,2017-09-03T18:30:00Z,26.1914,-97.0507,2.0,60.771169,7.024371858,-99999.0,'11133222,11111222,99999999' 
TABS,ioos:station:wmo:42044:1,2017-09-03T19:00:00Z,26.1914,-97.0507,2.0,74.25799686,6.192253225,-99999.0,'11133222,11111222,99999999' 
TABS,ioos:station:wmo:42044:1,2017-09-03T19:30:00Z,26.1914,-97.0507,2.0,80.90974434,6.329494451,-99999.0,'11133222,11111222,99999999' 
TABS,ioos:station:wmo:42044:1,2017-09-03T20:00:00Z,26.1914,-97.0507,2.0,65.30268542,2.058275978,-99999.0,'11133222,11111222,99999999' 
TABS,ioos:station:wmo:42044:1,2017-09-03T20:30:00Z,26.1914,-97.0507,2.0,163.8106211,1.614001239,-99999.0,'11133222,11111222,99999999' 
TABS,ioos:station:wmo:42044:1,2017-09-03T21:00:00Z,26.1914,-97.0507,2.0,167.4032458,1.834148304,-99999.0,'11133222,11111222,99999999' 
TABS,ioos:station:wmo:42044:1,2017-09-03T21:30:00Z,26.1914,-97.0507,2.0,179.5162935,2.370084387,-99999.0,'11133222,11111222,99999999' 
TABS,ioos:station:wmo:42044:1,2017-09-03T22:00:00Z,26.1914,-97.0507,2.0,199.80884,4.219691932,-99999.0,'11133222,11111222,99999999' 
TABS,ioos:station:wmo:42044:1,2017-09-03T22:30:00Z,26.1914,-97.0507,2.0,203.7337835,4.074616546,-99999.0,'11133222,11111222,99999999' 
TABS,ioos:station:wmo:42044:1,2017-09-03T23:00:00Z,26.1914,-97.0507,2.0,208.1183479,5.11353107,-99999.0,'11133222,11111222,99999999' 
TABS,ioos:station:wmo:42044:1,2017-09-03T23:30:00Z,26.1914,-97.0507,2.0,212.2068085,6.322926538,-99999.0,'11133222,11111222,99999999' 
TABS,ioos:station:wmo:42044:1,2017-09-04T00:00:00Z,26.1914,-97.0507,2.0,233.665782,5.772252593,-99999.0,'11133222,11111222,99999999' 
TABS,ioos:station:wmo:42044:1,2017-09-04T00:30:00Z,26.1914,-97.0507,2.0,232.6573761,5.094173142,-99999.0,'11133222,11111222,99999999' 
TABS,ioos:station:wmo:42044:1,2017-09-04T01:00:00Z,26.1914,-97.0507,2.0,225.5843135,4.158004329,-99999.0,'11133222,11111222,99999999' 
TABS,ioos:station:wmo:42044:1,2017-09-04T01:30:00Z,26.1914,-97.0507,2.0,250.4348108,4.33,-99999.0,'11133222,11111222,99999999' 
TABS,ioos:station:wmo:42044:1,2017-09-04T02:00:00Z,26.1914,-97.0507,2.0,249.3899343,6.25,-99999.0,'11133222,11111222,99999999' 
TABS,ioos:station:wmo:42044:1,2017-09-04T02:30:00Z,26.1914,-97.0507,2.0,273.7101578,4.018420088,-99999.0,'11133222,11111222,99999999' 
TABS,ioos:station:wmo:42044:1,2017-09-04T03:00:00Z,26.1914,-97.0507,2.0,267.5560128,7.036398226,-99999.0,'11133222,11111222,99999999' 
TABS,ioos:station:wmo:42044:1,2017-09-04T03:30:00Z,26.1914,-97.0507,2.0,271.6253935,5.642269047,-99999.0,'11133222,11111222,99999999' 
TABS,ioos:station:wmo:42044:1,2017-09-04T04:00:00Z,26.1914,-97.0507,2.0,290.788618,5.776028047,-99999.0,'11133222,11111222,99999999' 
TABS,ioos:station:wmo:42044:1,2017-09-04T04:30:00Z,26.1914,-97.0507,2.0,304.788494,5.065343029,-99999.0,'11133222,11111222,99999999' 
TABS,ioos:station:wmo:42044:1,2017-09-04T05:00:00Z,26.1914,-97.0507,2.0,309.1060598,7.023346781,-99999.0,'11133222,11111222,99999999' 
TABS,ioos:station:wmo:42044:1,2017-09-04T05:30:00Z,26.1914,-97.0507,2.0,318.7250855,6.639615953,-99999.0,'11133222,11111222,99999999' 
TABS,ioos:station:wmo:42044:1,2017-09-04T06:00:00Z,26.1914,-97.0507,2.0,310.8018042,8.6924565,-99999.0,'11133222,11111222,99999999' 
TABS,ioos:station:wmo:42044:1,2017-09-04T06:30:00Z,26.1914,-97.0507,2.0,324.0189856,10.05920971,-99999.0,'11111222,11111222,99999999' 
TABS,ioos:station:wmo:42044:1,2017-09-04T07:00:00Z,26.1914,-97.0507,2.0,324.0654615,9.559272985,-99999.0,'11133222,11111222,99999999' 
TABS,ioos:station:wmo:42044:1,2017-09-04T07:30:00Z,26.1914,-97.0507,2.0,346.4092938,7.489726297,-99999.0,'11133222,11111222,99999999' 
TABS,ioos:station:wmo:42044:1,2017-09-04T08:00:00Z,26.1914,-97.0507,2.0,355.6641125,9.126121849,-99999.0,'11133222,11111222,99999999' 
TABS,ioos:station:wmo:42044:1,2017-09-04T08:30:00Z,26.1914,-97.0507,2.0,351.1422724,7.792945528,-99999.0,'11133222,11111222,99999999' 
TABS,ioos:station:wmo:42044:1,2017-09-04T09:00:00Z,26.1914,-97.0507,2.0,4.658453675,8.126844406,-99999.0,'11133222,11111222,99999999' 
TABS,ioos:station:wmo:42044:1,2017-09-04T09:30:00Z,26.1914,-97.0507,2.0,358.783064,7.061593305,-99999.0,'11133222,11111222,99999999' 
TABS,ioos:station:wmo:42044:1,2017-09-04T10:00:00Z,26.1914,-97.0507,2.0,353.3493831,7.943456427,-99999.0,'11133222,11111222,99999999' 
TABS,ioos:station:wmo:42044:1,2017-09-04T10:30:00Z,26.1914,-97.0507,2.0,357.4568593,8.788657463,-99999.0,'11133222,11111222,99999999' 
TABS,ioos:station:wmo:42044:1,2017-09-04T11:00:00Z,26.1914,-97.0507,2.0,6.584960362,7.761198361,-99999.0,'11133222,11111222,99999999' 
TABS,ioos:station:wmo:42044:1,2017-09-04T11:30:00Z,26.1914,-97.0507,2.0,2.538381858,7.677532156,-99999.0,'11133222,11111222,99999999' 
TABS,ioos:station:wmo:42044:1,2017-09-04T12:00:00Z,26.1914,-97.0507,2.0,4.348424796,8.705056002,-99999.0,'11133222,11111222,99999999' 
TABS,ioos:station:wmo:42044:1,2017-09-04T12:30:00Z,26.1914,-97.0507,2.0,3.742415014,6.894700864,-99999.0,'11133222,11111222,99999999' 
TABS,ioos:station:wmo:42044:1,2017-09-04T13:00:00Z,26.1914,-97.0507,2.0,2.003257275,7.72472006,-99999.0,'11133222,11111222,99999999' 
TABS,ioos:station:wmo:42044:1,2017-09-04T13:30:00Z,26.1914,-97.0507,2.0,4.872649756,12.24424763,-99999.0,'11111222,11111222,99999999' 
TABS,ioos:station:wmo:42044:1,2017-09-04T14:00:00Z,26.1914,-97.0507,2.0,354.3728919,9.586198412,-99999.0,'11133222,11111222,99999999' 
TABS,ioos:station:wmo:42044:1,2017-09-04T14:30:00Z,26.1914,-97.0507,2.0,357.3887639,8.779117268,-99999.0,'11133222,11111222,99999999' 
TABS,ioos:station:wmo:42044:1,2017-09-04T15:00:00Z,26.1914,-97.0507,2.0,6.205404955,7.031194778,-99999.0,'11133222,11111222,99999999' 
TABS,ioos:station:wmo:42044:1,2017-09-04T15:30:00Z,26.1914,-97.0507,2.0,6.657118882,7.591179092,-99999.0,'11133222,11111222,99999999' 
TABS,ioos:station:wmo:42044:1,2017-09-04T16:00:00Z,26.1914,-97.0507,2.0,17.6705619,7.346625076,-99999.0,'11133222,11111222,99999999' 